Hourly Data Report for September 29, 2017

All times are specified in Local Standard Time (LST). Add 1 hour to adjust for Daylight Saving Time where and when it is observed.

FISHER BRANCH (AUT)
MANITOBA

51°05'00.100" N
97°33'16.200" W
253.00 m
50309J6
71442
WSZ

Download Data

Hourly Data (September 2017)
Hourly Data Report for September 29, 2017
Temp Definition
°C
Dew Point Temp Definition
°C
Rel Hum Definition
%
Wind Dir Definition
10's deg

Wind Spd Definition
km/h
Visibility Definition
km
Stn Press Definition
kPa
Hmdx Definition


Wind Chill Definition


Weather Definition


TIME
00:00 5.4 3.9 90 32 2   99.67     LegendNANA
01:00 4.1 3.4 95 31 3   99.71     LegendNANA
02:00 4.9 4.3 96 32 4   99.77     LegendNANA
03:00 4.6 3.9 95 4 1   99.80     LegendNANA
04:00 5.5 4.8 95 12 1   99.80     LegendNANA
05:00 5.9 5.0 95 14 2   99.83     LegendNANA
06:00 4.6 3.9 95 12 4   99.85     LegendNANA
07:00 4.0 3.4 96 11 4   99.87     LegendNANA
08:00 7.7 5.8 88 11 5   99.90     LegendNANA
09:00 10.1 5.2 71 11 10   99.91     LegendNANA
10:00 11.5 5.1 65 14 10   99.87     LegendNANA
11:00 12.1 5.4 63 18 13   99.84     LegendNANA
12:00 12.2 5.5 64 18 13   99.80     LegendNANA
13:00 12.7 5.6 62 20 13   99.74     LegendNANA
14:00 13.6 5.8 59 15 13   99.67     LegendNANA
15:00 15.3 6.2 54 17 9   99.60     LegendNANA
16:00 14.9 5.2 52 19 16   99.55     LegendNANA
17:00 14.3 5.6 56 18 14   99.49     LegendNANA
18:00 12.1 5.4 63 16 11   99.42     LegendNANA
19:00 9.6 4.9 72 15 10   99.38     LegendNANA
20:00 6.8 4.0 82 14 10   99.35     LegendNANA
21:00 6.7 4.2 85 14 10   99.32     LegendNANA
22:00 5.0 3.2 88 14 8   99.30     LegendNANA
23:00 6.5 4.0 84 17 10   99.26     LegendNANA

Notes on Data Quality.

Legend

  • E = Estimated
  • M = Missing
  • NA = Not Available
  • ‡ = Partner data that is not subject to review by the National Climate Archives
Date modified: